Flight Track Log - Related Links

Times and Time Zones

All times are in EDT time to prevent confusion due to time zone crossing. See the ASQ6055 flight status page for this flight to view local times or setup timezone preferences in your user account.

Time Position Orientation Groundspeed Altitude Reporting Facility
EDT Latitude Longitude Course Direction KTS MPH feet Rate Location/Type
12:37PM 38.9500 -77.5167 322° Northwest 175 201 1,700  Level Potomac TRACON
12:38PM 39.0000 -77.5667 322° Northwest 239 275 3,200 1,878 Climbing Potomac TRACON
12:39PM 39.0667 -77.5667 360° North 264 304 5,300 2,316 Climbing Potomac TRACON
12:40PM 39.1333 -77.5500 11° North 278 320 7,600 1,961 Climbing Potomac TRACON
12:43PM 39.3394 -77.5397 North 311 358 12,000 1,806 Climbing Washington Center
12:44PM 39.4314 -77.5289 North 316 364 13,800 1,866 Climbing Washington Center
12:45PM 39.5275 -77.5206 North 329 379 15,700 1,509 Climbing Washington Center
12:46PM 39.6781 -77.4528 19° North 333 383 17,800 963 Climbing New York Center
12:47PM 39.7742 -77.4539 359° North 359 413 18,300 694 Climbing New York Center
12:48PM 39.8886 -77.4539 360° North 391 450 19,200 966 Climbing New York Center
12:49PM 40.0036 -77.4486 North 406 467 20,200 915 Climbing New York Center
12:50PM 40.1247 -77.4494 360° North 417 480 21,000 397 Climbing New York Center
12:51PM 40.2500 -77.4450 North 434 499 21,000  Level New York Center
12:52PM 40.3814 -77.4414 North 451 519 21,000  Level New York Center
12:53PM 40.5128 -77.4433 359° North 464 534 21,000  Level New York Center
12:54PM 40.6422 -77.4394 North 464 534 21,000  Level New York Center
12:55PM 40.7664 -77.4158 North 459 528 21,000  Level New York Center
12:56PM 40.8875 -77.3042 35° Northeast 452 520 21,000  Level New York Center
12:57PM 40.9836 -77.2225 33° Northeast 457 526 21,000  Level New York Center
12:58PM 41.0933 -77.1200 35° Northeast 469 540 21,000  Level New York Center
12:59PM 41.2050 -77.0175 35° Northeast 480 552 21,000  Level New York Center
01:00PM 41.3164 -76.9172 34° Northeast 480 552 21,000  Level New York Center
01:01PM 41.4256 -76.8192 34° Northeast 480 552 21,000  Level New York Center
01:02PM 41.5372 -76.7156 35° Northeast 480 552 21,000  Level New York Center
01:03PM 41.6517 -76.6342 28° Northeast 475 547 21,000  Level New York Center
01:04PM 41.7786 -76.5925 14° North 461 531 21,000 -197 Level New York Center
01:05PM 41.9053 -76.5589 11° North 461 531 20,600 -893 Descending New York Center
01:06PM 42.0275 -76.5250 12° North 461 531 19,200 -1,513 Descending New York Center
01:07PM 42.1519 -76.4911 11° North 455 524 17,600 -1,966 Descending New York Center
01:08PM 42.2703 -76.4567 12° North 450 518 15,300 -2,607 Descending New York Center
01:09PM 42.3967 -76.4225 11° North 431 496 12,300 -2,150 Descending New York Center
01:10PM 42.5003 -76.3922 12° North 405 466 11,000 -661 Descending New York Center
01:11PM 42.5931 -76.3664 12° North 365 420 11,000  Level New York Center
01:13PM 42.7003 -76.3392 11° North 325 374 11,000 -682 Level Boston Center
01:14PM 42.7844 -76.3164 11° North 309 356 9,500 -1,623 Descending Boston Center
01:15PM 42.8667 -76.2958 10° North 301 346 7,700 -1,672 Descending Boston Center
01:16PM 42.9467 -76.2697 13° North 292 336 6,100 -1,289 Descending Boston Center
01:17PM 43.0125 -76.2314 23° Northeast 269 310 5,100 -545 Descending Boston Center
01:18PM 43.0111 -76.1458 91° East 188 216 5,000 -149 Descending Boston Center
01:19PM 43.0075 -76.0692 94° East 202 232 4,800 -595 Descending Boston Center
01:20PM 43.0119 -75.9956 85° East 198 228 3,800 -885 Descending Boston Center
01:21PM 43.0225 -75.9194 79° East 197 227 3,000 -397 Descending Boston Center
01:22PM 43.0550 -75.8814 41° Northeast 189 217 3,000  Level Boston Center
01:23PM 43.0994 -75.9239 325° Northwest 182 209 3,000 -446 Level Boston Center
01:24PM 43.1122 -75.9900 285° West 182 209 2,100 -885 Descending Boston Center
01:25PM 43.1125 -76.0469 270° West 133 153 1,200 -885 Descending Boston Center

Login

Don't have an account? Register now (free) for customized features, flight alerts, and more!